Tracking 19920 objects as of 13-Oct-2019
HD Live streaming from Space Station
objects crossing your sky now

IRIDIUM 33 DEB

Track IRIDIUM 33 DEB now!
10-day predictions


NORAD ID: 38241
Int'l Code: 1997-051ZR
Perigee: 754.5 km
Apogee: 759.1 km
Inclination: 86.3 °
Period: 99.8 minutes
Semi major axis: 7127 km
RCS: 0.0216 m2 (small)
Launch date: September 14, 1997
Source: United States (US)
Launch site: TYURATAM MISSILE AND SPACE COMPLEX (TTMTR)

Note: This is SATELLITE DEBRIS
aabbcc
Your satellite tracking list
Your tracking list is empty




NASA's NSSDC Master Catalog

Two Line Element Set (TLE):
1 38241U 97051ZR  19285.61066125  .00000434  00000-0  12441-3 0  9998
2 38241  86.3260 249.3494 0003246  20.8302 339.3030 14.42683314513039
Source of the keplerian elements: AFSPC